When you browse on this site, cookies collect data to enhance your experience and personalize the content and advertising you see.
Visit our Privacy Policy to learn more. By continuing to use the site, you agree to this use of cookies and data.
  • In Lithuania
  • List of Countries
  • For 7 days
  • Water Temperature
  • Satellite Maps
  • Weather Map
  • Weather Widgets
  • user-avatar
    Login

    Hourly Weather Tuzlukov

    Today, 19 March, Tuesday

    Time Temperature Precipitation Wind Pressure Humidity
    00:00 +6°C° 0 mm 2 mps 769 mmHg 80%
    01:00 +5°C° 0 mm 2 mps 769 mmHg 81%
    02:00 +5°C° 0 mm 2 mps 769 mmHg 82%
    03:00 +4°C° 0 mm 2 mps 769 mmHg 83%
    04:00 +4°C° 0 mm 2 mps 769 mmHg 85%
    05:00 +4°C° 0 mm 2 mps 769 mmHg 86%
    06:00 +3°C° 0 mm 2 mps 769 mmHg 88%
    07:00 +3°C° 0 mm 3 mps 769 mmHg 84%
    08:00 +5°C° 0 mm 3 mps 770 mmHg 80%
    09:00 +7°C° 0 mm 3 mps 770 mmHg 76%
    10:00 +7°C° 0 mm 4 mps 770 mmHg 70%
    11:00 +8°C° 0 mm 4 mps 770 mmHg 63%
    12:00 +11°C° 0 mm 4 mps 770 mmHg 56%
    13:00 +11°C° 0 mm 4 mps 769 mmHg 54%
    14:00 +12°C° 0 mm 3 mps 769 mmHg 52%
    15:00 +13°C° 0 mm 3 mps 769 mmHg 49%
    16:00 +12°C° 0 mm 3 mps 769 mmHg 53%
    17:00 +11°C° 0 mm 3 mps 768 mmHg 56%
    18:00 +11°C° 0 mm 3 mps 768 mmHg 59%
    19:00 +10°C° 0 mm 3 mps 768 mmHg 63%
    20:00 +9°C° 0 mm 3 mps 769 mmHg 67%
    21:00 +8°C° 0 mm 3 mps 769 mmHg 71%
    22:00 +7°C° 0 mm 3 mps 769 mmHg 73%
    23:00 +7°C° 0 mm 3 mps 769 mmHg 75%

    Tomorrow, 20 March, Wednesday

    Time Temperature Precipitation Wind Pressure Humidity
    00:00 +5°C° 0 mm 3 mps 769 mmHg 76%
    01:00 +5°C° 0 mm 3 mps 769 mmHg 77%
    02:00 +4°C° 0 mm 3 mps 769 mmHg 78%
    03:00 +4°C° 0 mm 3 mps 769 mmHg 79%
    04:00 +3°C° 0 mm 3 mps 769 mmHg 80%
    05:00 +3°C° 0 mm 3 mps 769 mmHg 80%
    06:00 +3°C° 0 mm 3 mps 769 mmHg 81%
    07:00 +4°C° 0 mm 3 mps 769 mmHg 77%
    08:00 +5°C° 0 mm 3 mps 769 mmHg 72%
    09:00 +7°C° 0 mm 3 mps 769 mmHg 68%
    10:00 +8°C° 0 mm 3 mps 769 mmHg 62%
    11:00 +10°C° 0 mm 4 mps 769 mmHg 56%
    12:00 +11°C° 0 mm 4 mps 768 mmHg 50%
    13:00 +12°C° 0 mm 4 mps 768 mmHg 48%
    14:00 +13°C° 0 mm 4 mps 768 mmHg 46%
    15:00 +13°C° 0 mm 4 mps 767 mmHg 44%
    16:00 +13°C° 0 mm 3 mps 767 mmHg 47%
    17:00 +12°C° 0 mm 3 mps 767 mmHg 50%
    18:00 +11°C° 0 mm 3 mps 767 mmHg 54%
    19:00 +10°C° 0 mm 3 mps 767 mmHg 57%
    20:00 +9°C° 0 mm 3 mps 767 mmHg 60%
    21:00 +8°C° 0 mm 2 mps 768 mmHg 64%
    22:00 +8°C° 0 mm 2 mps 767 mmHg 65%
    23:00 +7°C° 0 mm 2 mps 767 mmHg 66%

    Day after tomorrow, 21 March, Thursday

    Time Temperature Precipitation Wind Pressure Humidity
    00:00 +6°C° 0 mm 2 mps 767 mmHg 68%
    01:00 +7°C° 0 mm 1 mps 767 mmHg 69%
    02:00 +7°C° 0 mm 1 mps 767 mmHg 71%
    03:00 +6°C° 0 mm 1 mps 767 mmHg 72%
    04:00 +5°C° 0 mm 0 mps 767 mmHg 73%
    05:00 +5°C° 0 mm 0 mps 767 mmHg 74%
    06:00 +5°C° 0 mm 0 mps 767 mmHg 75%
    07:00 +6°C° 0 mm 0 mps 767 mmHg 70%
    08:00 +7°C° 0 mm 0 mps 767 mmHg 66%
    09:00 +10°C° 0 mm 1 mps 767 mmHg 61%
    10:00 +11°C° 0 mm 1 mps 767 mmHg 57%
    11:00 +12°C° 0 mm 2 mps 766 mmHg 53%
    12:00 +13°C° 0 mm 2 mps 766 mmHg 49%
    13:00 +12°C° 0 mm 3 mps 766 mmHg 50%
    14:00 +13°C° 0 mm 3 mps 765 mmHg 51%
    15:00 +13°C° 0 mm 4 mps 765 mmHg 52%
    16:00 +12°C° 0.1 mm 4 mps 765 mmHg 58%
    17:00 +11°C° 0.1 mm 4 mps 765 mmHg 63%
    18:00 +10°C° 0.1 mm 4 mps 765 mmHg 68%
    19:00 +9°C° 0 mm 3 mps 765 mmHg 67%
    20:00 +8°C° 0 mm 3 mps 765 mmHg 66%
    21:00 +8°C° 0 mm 2 mps 765 mmHg 65%
    22:00 +7°C° 0 mm 3 mps 765 mmHg 64%
    23:00 +7°C° 0 mm 3 mps 765 mmHg 62%

    22 March, Friday

    Time Temperature Precipitation Wind Pressure Humidity
    00:00 +7°C° 0 mm 3 mps 765 mmHg 61%
    01:00 +5°C° 0.1 mm 3 mps 765 mmHg 63%
    02:00 +5°C° 0.1 mm 3 mps 765 mmHg 66%
    03:00 +5°C° 0.1 mm 3 mps 765 mmHg 69%
    04:00 +4°C° 0.2 mm 3 mps 765 mmHg 73%
    05:00 +4°C° 0.2 mm 4 mps 765 mmHg 76%
    06:00 +3°C° 0.2 mm 4 mps 765 mmHg 80%
    07:00 +3°C° 0 mm 4 mps 766 mmHg 77%
    08:00 +3°C° 0 mm 5 mps 766 mmHg 74%
    09:00 +5°C° 0 mm 5 mps 767 mmHg 71%
    10:00 +5°C° 0.3 mm 5 mps 767 mmHg 68%
    11:00 +6°C° 0.3 mm 5 mps 767 mmHg 64%
    12:00 +5°C° 0.3 mm 6 mps 767 mmHg 60%
    13:00 +7°C° 0 mm 6 mps 766 mmHg 58%
    14:00 +7°C° 0 mm 6 mps 766 mmHg 56%
    15:00 +7°C° 0 mm 5 mps 766 mmHg 53%
    16:00 +7°C° 0 mm 5 mps 766 mmHg 53%
    17:00 +7°C° 0 mm 4 mps 766 mmHg 54%
    18:00 +8°C° 0 mm 3 mps 766 mmHg 54%
    19:00 +7°C° 0 mm 2 mps 766 mmHg 56%
    20:00 +7°C° 0 mm 2 mps 767 mmHg 58%
    21:00 +8°C° 0 mm 1 mps 767 mmHg 60%
    22:00 +6°C° 0 mm 2 mps 767 mmHg 62%
    23:00 +6°C° 0 mm 2 mps 766 mmHg 64%

    23 March, Saturday

    Time Temperature Precipitation Wind Pressure Humidity
    00:00 +5°C° 0 mm 3 mps 766 mmHg 66%
    01:00 +5°C° 0.1 mm 4 mps 766 mmHg 69%
    02:00 +5°C° 0.1 mm 4 mps 765 mmHg 72%
    03:00 +5°C° 0.1 mm 5 mps 765 mmHg 76%
    04:00 +5°C° 0 mm 5 mps 765 mmHg 78%
    05:00 +5°C° 0 mm 5 mps 764 mmHg 81%
    06:00 +5°C° 0 mm 5 mps 764 mmHg 84%
    07:00 +5°C° 0.2 mm 5 mps 764 mmHg 84%
    08:00 +6°C° 0.2 mm 5 mps 764 mmHg 84%
    09:00 +5°C° 0.2 mm 6 mps 764 mmHg 84%
    10:00 +7°C° 0.1 mm 6 mps 764 mmHg 78%
    11:00 +9°C° 0.1 mm 5 mps 764 mmHg 71%
    12:00 +10°C° 0.1 mm 5 mps 764 mmHg 65%
    13:00 +11°C° 0 mm 6 mps 764 mmHg 59%
    14:00 +11°C° 0 mm 6 mps 764 mmHg 53%
    15:00 +13°C° 0 mm 6 mps 763 mmHg 46%
    16:00 +13°C° 0 mm 5 mps 763 mmHg 50%
    17:00 +12°C° 0 mm 5 mps 763 mmHg 54%
    18:00 +11°C° 0 mm 4 mps 763 mmHg 57%
    19:00 +11°C° 0 mm 3 mps 764 mmHg 63%
    20:00 +10°C° 0 mm 3 mps 764 mmHg 68%
    21:00 +9°C° 0 mm 3 mps 765 mmHg 73%
    22:00 +9°C° 0 mm 3 mps 765 mmHg 74%
    23:00 +9°C° 0 mm 3 mps 764 mmHg 75%

    24 March, Sunday

    Time Temperature Precipitation Wind Pressure Humidity
    00:00 +8°C° 0 mm 4 mps 764 mmHg 75%
    01:00 +8°C° 0 mm 4 mps 764 mmHg 76%
    02:00 +8°C° 0 mm 5 mps 764 mmHg 76%
    03:00 +8°C° 0 mm 6 mps 763 mmHg 77%
    04:00 +8°C° 0 mm 6 mps 763 mmHg 79%
    05:00 +7°C° 0 mm 6 mps 763 mmHg 82%
    06:00 +7°C° 0 mm 6 mps 763 mmHg 85%
    07:00 +8°C° 0 mm 6 mps 763 mmHg 81%
    08:00 +8°C° 0 mm 7 mps 763 mmHg 78%
    09:00 +9°C° 0 mm 7 mps 763 mmHg 74%
    10:00 +10°C° 0 mm 7 mps 763 mmHg 74%
    11:00 +10°C° 0 mm 8 mps 763 mmHg 73%
    12:00 +10°C° 0 mm 8 mps 763 mmHg 72%
    13:00 +11°C° 0.1 mm 7 mps 763 mmHg 70%
    14:00 +11°C° 0.1 mm 7 mps 763 mmHg 68%
    15:00 +12°C° 0.1 mm 7 mps 762 mmHg 66%
    16:00 +13°C° 0.2 mm 6 mps 762 mmHg 68%
    17:00 +12°C° 0.2 mm 5 mps 762 mmHg 70%
    18:00 +12°C° 0.2 mm 4 mps 763 mmHg 72%
    19:00 +11°C° 0.1 mm 4 mps 763 mmHg 76%
    20:00 +10°C° 0.1 mm 4 mps 763 mmHg 80%
    21:00 +10°C° 0.1 mm 3 mps 763 mmHg 84%
    22:00 +9°C° 0.1 mm 3 mps 763 mmHg 86%
    23:00 +9°C° 0.1 mm 3 mps 763 mmHg 87%
    Show more